This demonstration page uses our WeatherBlox Daily Observations layout. Learn more.

Hourly Observations for January 5, 2019

Temp ( °F °C ) Dew Point ( °F °C ) Humidity (%) Winds ( mph kmh ) Pressure ( in mb ) Visibility ( mi km ) Precip ( " mm )
12:15 am 00:15 Cloudy with Mist and Fog 43 6 43 6 100 100 NE 5 7 29.62 1003 2.5 4.02336 0 0
12:35 am 00:35 Cloudy with Mist and Fog 43 6 43 6 100 100 NE 3 6 29.62 1003 3 4.828032 0 0
12:55 am 00:55 Cloudy with Light Rain 43 6 43 6 100 100 NE 3 6 29.62 1003 3 4.828032 0 0
1:15 am 01:15 Cloudy with Rain 43 6 43 6 100 100 NE 3 6 29.59 1002 2.5 4.02336 0.02 0.508
1:35 am 01:35 Cloudy with Drizzle 43 6 43 6 100 100 NNW 3 6 29.59 1002 2 3.218688 0.03 0.762
1:55 am 01:55 Cloudy with Heavy Rain 41 5 41 5 100 100 NNW 5 7 29.62 1003 1.75 2.816352 0.08 2.032
2:15 am 02:15 Cloudy with Light Drizzle 41 5 41 5 100 100 NNW 6 9 29.62 1003 2 3.218688 0 0
2:35 am 02:35 Cloudy with Rain 41 5 41 5 100 100 N 5 7 29.62 1003 2.5 4.02336 0.02 0.508
2:55 am 02:55 Cloudy with Light Rain 41 5 41 5 100 100 NNE 6 9 29.59 1002 4 6.437376 0.03 0.762
3:15 am 03:15 Cloudy with Mist and Fog 41 5 41 5 100 100 NNE 5 7 29.59 1002 5 8.04672 0 0
3:35 am 03:35 Cloudy with Rain 41 5 41 5 100 100 NNE 7 11 29.53 1000 5 8.04672 0 0
3:55 am 03:55 Cloudy with Mist and Fog 41 5 41 5 100 100 NNE 3 6 29.53 1000 5 8.04672 0 0
4:15 am 04:15 Cloudy with Mist and Fog 41 5 41 5 100 100 NNE 3 6 29.53 1000 5 8.04672 0 0
4:35 am 04:35 Cloudy with Mist and Fog 41 5 41 5 100 100 NE 5 7 29.5 999 5 8.04672 0 0
4:55 am 04:55 Cloudy with Mist and Fog 41 5 41 5 100 100 NNE 3 6 29.5 999 5 8.04672 0 0
5:15 am 05:15 Cloudy with Mist and Fog 41 5 41 5 100 100 Calm 29.5 999 5 8.04672 0 0
5:35 am 05:35 Cloudy with Mist and Fog 41 5 41 5 100 100 NNE 5 7 29.5 999 5 8.04672 0 0
5:55 am 05:55 Cloudy with Mist and Fog 41 5 41 5 100 100 N 7 11 29.5 999 4 6.437376 0 0
6:15 am 06:15 Cloudy with Mist and Fog 41 5 41 5 100 100 N 7 11 29.5 999 4 6.437376 0 0
6:35 am 06:35 Cloudy with Mist and Fog 41 5 41 5 100 100 N 6 9 29.5 999 1.75 2.816352 0 0
6:55 am 06:55 Cloudy with Mist and Fog 41 5 41 5 100 100 NNW 5 7 29.5 999 2 3.218688 0 0
7:15 am 07:15 Cloudy with Mist and Fog 41 5 41 5 100 100 NNW 6 9 29.5 999 1.75 2.816352 0 0
7:35 am 07:35 Cloudy with Mist and Fog 41 5 41 5 100 100 NW 7 11 29.5 999 1.75 2.816352 0 0
7:55 am 07:55 Cloudy with Mist and Fog 41 5 41 5 100 100 NNW 10 17 29.53 1000 3 4.828032 0 0
8:15 am 08:15 Cloudy 41 5 41 5 100 100 NNW 12 19 29.53 1000 7 11.265408 0 0
8:35 am 08:35 Cloudy 41 5 41 5 100 100 N 5 7 29.53 1000 10 16.09344 0 0
8:55 am 08:55 Cloudy 41 5 41 5 100 100 N 6 9 29.53 1000 10 16.09344 0 0
9:55 am 09:55 Cloudy 43 6 43 6 100 100 N 8 13 29.56 1001 10 16.09344 0 0
10:15 am 10:15 Cloudy 43 6 43 6 100 100 NNW 6 9 29.56 1001 10 16.09344 0 0
10:35 am 10:35 Cloudy 43 6 43 6 100 100 NW 10 17 29.56 1001 10 16.09344 0 0
10:55 am 10:55 Cloudy with Light Rain 43 6 43 6 100 100 NW 8 13 29.59 1002 10 16.09344 0 0
11:15 am 11:15 Cloudy 45 7 43 6 93 93 NW 8 13 29.59 1002 10 16.09344 0 0
11:55 am 11:55 Cloudy 45 7 43 6 93 93 NW 9 15 29.59 1002 10 16.09344 0 0
12:15 pm 12:15 Cloudy 45 7 43 6 93 93 NW 15 24 29.59 1002 10 16.09344 0 0
12:35 pm 12:35 Cloudy with Heavy Rain 45 7 43 6 93 93 WNW 13 20 29.59 1002 5 8.04672 0.01 0.254
12:55 pm 12:55 Cloudy with Light Rain 45 7 43 6 93 93 WNW 9 15 29.59 1002 10 16.09344 0.02 0.508
1:15 pm 13:15 Cloudy with Heavy Rain 45 7 43 6 93 93 NW 14 22 29.59 1002 7 11.265408 0.02 0.508
1:55 pm 13:55 Cloudy 45 7 43 6 93 93 NW 13 20 29.62 1003 10 16.09344 0.03 0.762
2:15 pm 14:15 Cloudy 46 8 43 6 87 87 NW 18 30 29.62 1003 10 16.09344 0 0
2:35 pm 14:35 Partly Cloudy 50 10 45 7 82 82 NW 13 20 29.62 1003 10 16.09344 0 0
2:55 pm 14:55 Sunny 50 10 45 7 82 82 NNW 15 24 29.65 1004 10 16.09344 0 0
3:15 pm 15:15 Sunny 52 11 43 6 72 72 NNW 10 17 29.65 1004 10 16.09344 0 0
3:35 pm 15:35 Sunny 52 11 41 5 67 67 NW 23 37 29.65 1004 10 16.09344 0 0
4:15 pm 16:15 Sunny 52 11 41 5 67 67 NW 10 17 29.68 1005 10 16.09344 0 0
4:35 pm 16:35 Sunny 52 11 39 4 62 62 NW 20 31 29.71 1006 10 16.09344 0 0
4:55 pm 16:55 Sunny 50 10 39 4 67 67 WNW 15 24 29.71 1006 10 16.09344 0 0
5:15 pm 17:15 Clear 50 10 39 4 67 67 WNW 16 26 29.71 1006 10 16.09344 0 0
5:35 pm 17:35 Clear 50 10 39 4 67 67 NW 15 24 29.74 1007 10 16.09344 0 0
5:55 pm 17:55 Clear 48 9 39 4 71 71 WNW 8 13 29.77 1008 10 16.09344 0 0
6:15 pm 18:15 Clear 48 9 39 4 71 71 WNW 10 17 29.77 1008 10 16.09344 0 0
6:35 pm 18:35 Clear 50 10 39 4 67 67 W 10 17 29.8 1009 10 16.09344 0 0
6:55 pm 18:55 Clear 48 9 39 4 71 71 WNW 8 13 29.8 1009 10 16.09344 0 0
7:35 pm 19:35 Clear 48 9 39 4 71 71 WNW 9 15 29.83 1010 10 16.09344 0 0
7:55 pm 19:55 Clear 48 9 39 4 71 71 WNW 13 20 29.83 1010 10 16.09344 0 0
8:15 pm 20:15 Clear 46 8 37 3 71 71 WNW 10 17 29.83 1010 10 16.09344 0 0
8:35 pm 20:35 Clear 46 8 37 3 71 71 NW 9 15 29.88 1012 10 16.09344 0 0
8:55 pm 20:55 Clear 46 8 37 3 71 71 WNW 7 11 29.88 1012 10 16.09344 0 0
9:15 pm 21:15 Clear 46 8 37 3 71 71 WNW 3 6 29.88 1012 10 16.09344 0 0
9:35 pm 21:35 Clear 46 8 37 3 71 71 W 3 6 29.88 1012 10 16.09344 0 0
9:55 pm 21:55 Clear 46 8 37 3 71 71 WNW 3 6 29.88 1012 10 16.09344 0 0
10:15 pm 22:15 Clear 45 7 37 3 76 76 W 7 11 29.91 1013 10 16.09344 0 0
10:35 pm 22:35 Clear 46 8 37 3 71 71 WNW 12 19 29.88 1012 10 16.09344 0 0
10:55 pm 22:55 Clear 46 8 37 3 71 71 WNW 8 13 29.88 1012 10 16.09344 0 0
11:15 pm 23:15 Clear 46 8 37 3 71 71 W 5 7 29.88 1012 10 16.09344 0 0
11:35 pm 23:35 Clear 45 7 37 3 76 76 W 5 7 29.88 1012 10 16.09344 0 0
11:55 pm 23:55 Clear 45 7 37 3 76 76 Calm 29.88 1012 10 16.09344 0 0

Powered by AerisWeather